Flag for Germany Weather past 2 weeks in Gotha, Thuringia, Germany

Now
34 °F

Passing clouds.


Feels Like: 29 °F
Forecast: 35 / 38 °F
Wind: 5 mph from West

Location: Erfurt-Bindersleben

Current Time: Jan 27, 2015 at 6:26:44 PM

Latest Report: Jan 27, 2015 at 6:00 PM


Visibility: 19 mi

Pressure: 30.12 "Hg

Humidity: 93%

Dew point: 32 °F

Location of GothaLocation

Historic Weather in Gotha — Graph

°F

Gotha temperature yesterday

Maximum temperature yesterday: 35 °F (at 1:00 PM)
Minimum temperature yesterday: 33 °F (at 4:00 AM)
Average temperature yesterday: 34 °F

Past Weeks' High & Low Weather Summary

 TemperatureHumidityPressure
High52 °F (Jan 13, 6:00 PM)100% (Jan 16, 10:00 PM)30.38 "Hg (Jan 16, 10:00 PM)
Low20 °F (Jan 24, 9:00 AM)50% (Jan 13, 3:00 PM)29.62 "Hg (Jan 15, 6:00 PM)
Average34 °F89%30.00 "Hg
* Reported Jan 12 5:00 PM — Jan 27 5:00 PM, Gotha, Weather by CustomWeather, © 2014

Note: Actual official high and low records may vary slightly from our data, if they occured in-between our weather recording intervals... More about our weather records

Advertising

Gotha weather history for previous 24 hours

 ConditionsComfort  
Time TempWeatherWind HumidityBarometerVisibility
5:00 PM
Jan 27
35 °FPassing clouds.6 mph86%30.10 "Hg19 mi
4:00 PM36 °FPartly sunny.7 mph83%30.09 "Hg19 mi
3:00 PM36 °FPartly sunny.7 mph82%30.08 "Hg16 mi
2:00 PM36 °FOvercast.6 mph83%30.08 "Hg19 mi
1:00 PM36 °FOvercast.6 mph85%30.09 "Hg19 mi
12:00 PM35 °FOvercast.7 mph87%30.09 "Hg17 mi
11:00 AM34 °FPartly sunny.6 mph92%30.10 "Hg17 mi
10:00 AM34 °FOvercast.8 mph90%30.08 "Hg14 mi
9:00 AM33 °FPartly sunny.8 mph91%30.07 "Hg16 mi
8:00 AM33 °FPartly sunny.7 mph95%30.06 "Hg19 mi
7:00 AM33 °FPassing clouds.7 mph94%30.05 "Hg19 mi
6:00 AM34 °FPassing clouds.6 mph91%30.03 "Hg19 mi
5:00 AM34 °FPassing clouds.6 mph90%30.02 "Hg19 mi
4:00 AM35 °FOvercast.7 mph92%30.01 "Hg19 mi
3:00 AM35 °FPassing clouds.7 mph92%30.01 "Hg19 mi
2:00 AM34 °FLight rain. Low clouds.7 mph96%30.00 "Hg12 mi
1:00 AM34 °FLow clouds.7 mph96%30.00 "Hg16 mi
12:00 AM34 °FLow clouds.6 mph97%30.00 "Hg16 mi
11:00 PM
Jan 26
34 °FLight rain. Low clouds.7 mph95%30.00 "Hg12 mi
10:00 PM35 °FOvercast.7 mph94%29.99 "Hg16 mi
9:00 PM33 °FLight snow. Low clouds.6 mph98%30.00 "Hg6 mi
8:00 PM34 °FLight snow. Low clouds.8 mph93%30.00 "Hg9 mi
7:00 PM33 °FLight snow. Overcast.6 mph96%30.01 "Hg11 mi
6:00 PM33 °FLight snow. Low clouds.7 mph97%30.03 "Hg5 mi
Weather by CustomWeather, © 2014

See weather overviewHow to use our weather pages